Regional Weather Roundup
Issued by NWS Northern Indiana

Home | Current Version | Previous Version | Graphics & Text | Print | Product List | Glossary On
Versions: 1 2 3 4 5 6 7 8 9 10 11 12 13 14 15 16 17 18 19 20 21 22 23 24 25 26 27 28 29 30 31 32 33 34 35 36 37 38 39 40 41 42 43 44 45 46 47 48 49 50
000
ASUS43 KIWX 300800
RWRIWX

KIWX WEATHER ROUNDUP
NATIONAL WEATHER SERVICE NORTHERN INDIANA
400 AM EDT THU MAR 30 2017

NOTE: "FAIR" INDICATES FEW OR NO CLOUDS BELOW 12,000 FEET WITH NO
SIGNIFICANT WEATHER AND/OR OBSTRUCTIONS TO VISIBILITY.

* THESE STATIONS ARE NOT UNDER NWS QUALITY CONTROL. THEY ALSO MAY NOT
  REPORT WEATHER SUCH AS PRECIPITATION OR FOG.

INZ001>027-300900-
NORTHERN INDIANA

CITY           SKY/WX    TMP DP  RH WIND       PRES   REMARKS
VALPARAISO     TSTM      45  39  81 NE13      29.92R FOG
KNOX*          CLOUDY    45  23  42 E18G26    29.87F
SOUTH BEND     LGT RAIN  44  35  70 E16G25    29.94F
GOSHEN         CLOUDY    44  34  67 E20G28    29.93F
MONTICELLO*    CLOUDY    46  38  73 E14G24    29.84F
ANGOLA*        CLOUDY    43  34  70 E20       30.01F
FORT WAYNE     CLOUDY    44  36  73 E25G32    29.95F
PERU/GRISSOM   MOCLDY    45  38  76 E22G30    29.85F

$$
INZ028>050-300900-
CENTRAL INDIANA

CITY           SKY/WX    TMP DP  RH WIND       PRES   REMARKS
LAFAYETTE      CLOUDY    46  41  82 E17       29.82F
KOKOMO*        MOCLDY    45  38  76 E21G31    29.86F
MUNCIE*        CLOUDY    48  39  71 E17       29.91F
INDIANAPOLIS   CLOUDY    54  43  66 E16       29.84F

$$
MIZ043>046-050>051-056>058-064>065-071>073-077>080-300900-
SOUTHWEST LOWER MICHIGAN

CITY           SKY/WX    TMP DP  RH WIND       PRES   REMARKS
BATTLE CREEK   CLOUDY    40  35  83 E10       30.04F
BENTON HARBOR  RAIN      43  36  76 E7G21     30.00R
COLDWATER*     CLOUDY    43  30  60 E17       30.01F
HILLSDALE*     CLOUDY    41  32  70 E23G29    30.05S
HOLLAND        CLOUDY    39  34  82 E15       30.02F
GRAND RAPIDS   CLOUDY    37  34  89 E14       30.05F
KALAMAZOO      CLOUDY    42  33  70 E12G23    30.02F
STURGIS*       DRIZZLE   43  32  65 E20G30    29.98F
THREE RIVERS*  CLOUDY    44  31  62 E17G23    29.99F

$$
OHZ001>008-015>018-024>025-300900-
NORTHWEST OHIO

CITY           SKY/WX    TMP DP  RH WIND       PRES   REMARKS
DEFIANCE       CLOUDY    42  34  73 E14G23    30.04F
FINDLAY        CLOUDY    44  35  70 NE15      30.05S
TOLEDO EXPRESS LGT RAIN  41  35  79 E14       30.09F
TOLEDO METCALF CLOUDY    42  36  79 E14G22    30.10F
LIMA           CLOUDY    45  35  68 NE12      30.02S

$$
AND FOR LAKE MICHIGAN COASTAL AND OPEN LAKE BUOY OBSERVATIONS

STATION/POSITION TEMP    WIND        PRES    VSBY  WAVE
                 AIR SEA DIR/SP/G                  HT/PER
                 (F)     (DEG/KT/KT) (MB)    (MI)  (FT/S)
CALUMET HARBOR    40      40/  9/ 12 1013.3F
MICHIGAN CITY     43      40/ 14/ 17   N/A
BURNS HARBOR      43      60/ 16/ 20 1013.5F

$$
&&




USA.gov is the U.S. government's official web portal to all federal, state and local government web resources and services.